TimeEDT,TemperatureF,Dew PointF,Humidity,Sea Level PressureIn,VisibilityMPH,Wind Direction,Wind SpeedMPH,Gust SpeedMPH,PrecipitationIn,Events,Conditions,WindDirDegrees,DateUTC
12:53 AM,59.0,55.0,87,29.42,7.0,SSE,23.0,28.8,0.00,Rain,Light Rain,150,2012-10-18 04:53:00
1:53 AM,60.1,54.0,80,29.39,10.0,SSE,20.7,29.9,0.01,,Overcast,150,2012-10-18 05:53:00
2:53 AM,59.0,54.0,83,29.36,10.0,SE,15.0,-,N/A,,Overcast,140,2012-10-18 06:53:00
3:53 AM,60.1,53.1,78,29.33,10.0,SSE,16.1,-,N/A,,Overcast,150,2012-10-18 07:53:00
4:51 AM,60.8,53.6,77,29.31,10.0,SSE,12.7,-,0.00,Rain,Light Rain,150,2012-10-18 08:51:00
4:53 AM,59.0,53.1,81,29.30,10.0,SSE,12.7,-,0.00,Rain,Light Rain,150,2012-10-18 08:53:00
5:53 AM,57.0,54.0,89,29.29,5.0,SSE,15.0,-,0.05,Rain,Rain,160,2012-10-18 09:53:00
6:50 AM,57.2,53.6,88,29.30,5.0,South,13.8,19.6,0.13,Rain,Rain,180,2012-10-18 10:50:00
6:53 AM,57.0,54.0,89,29.30,4.0,SSW,13.8,-,0.14,Rain,Rain,200,2012-10-18 10:53:00
6:58 AM,55.4,53.6,94,29.31,2.5,WSW,17.3,25.3,0.03,Rain,Heavy Rain,240,2012-10-18 10:58:00
7:02 AM,53.6,51.8,94,29.31,2.0,WSW,20.7,26.5,0.09,Rain,Heavy Rain,240,2012-10-18 11:02:00
7:15 AM,53.6,51.8,94,29.32,3.0,WSW,25.3,31.1,N/A,Rain,Heavy Rain,240,2012-10-18 11:15:00
7:41 AM,51.8,48.2,88,29.34,6.0,WSW,15.0,-,0.24,Rain,Rain,240,2012-10-18 11:41:00
7:53 AM,51.1,48.0,89,29.35,7.0,WSW,16.1,28.8,0.26,Rain,Rain,240,2012-10-18 11:53:00
8:53 AM,51.1,48.0,89,29.36,10.0,South,10.4,-,0.04,Rain,Light Rain,190,2012-10-18 12:53:00
9:02 AM,50.0,48.2,94,29.36,10.0,South,8.1,-,0.00,Rain,Light Rain,180,2012-10-18 13:02:00
9:53 AM,51.1,46.9,86,29.38,10.0,SSW,10.4,-,0.02,,Overcast,210,2012-10-18 13:53:00
10:53 AM,50.0,46.0,86,29.39,5.0,SSW,15.0,19.6,0.00,Rain,Light Rain,200,2012-10-18 14:53:00
11:11 AM,48.2,46.4,93,29.41,2.5,SSW,17.3,21.9,0.01,Rain,Rain,200,2012-10-18 15:11:00
11:31 AM,48.2,44.6,87,29.41,3.0,SSW,15.0,24.2,0.02,Rain,Light Rain,200,2012-10-18 15:31:00
11:53 AM,48.9,44.1,83,29.42,9.0,SSW,13.8,23.0,0.02,,Mostly Cloudy,210,2012-10-18 15:53:00
12:53 PM,52.0,43.0,71,29.44,10.0,SW,15.0,-,N/A,,Mostly Cloudy,220,2012-10-18 16:53:00
1:53 PM,54.0,39.0,57,29.46,10.0,SSW,16.1,26.5,N/A,,Mostly Cloudy,200,2012-10-18 17:53:00
2:53 PM,55.0,37.0,51,29.46,10.0,SSW,15.0,-,N/A,,Overcast,200,2012-10-18 18:53:00
3:53 PM,51.1,39.0,63,29.49,5.0,SSW,17.3,35.7,0.00,Rain,Light Rain,210,2012-10-18 19:53:00
4:53 PM,51.1,41.0,68,29.51,10.0,SSE,13.8,-,0.00,,Overcast,160,2012-10-18 20:53:00
5:53 PM,52.0,39.0,61,29.51,10.0,South,5.8,-,0.00,,Overcast,180,2012-10-18 21:53:00
6:53 PM,50.0,41.0,71,29.54,10.0,South,5.8,-,N/A,,Overcast,170,2012-10-18 22:53:00
7:53 PM,48.9,39.9,71,29.58,7.0,SW,13.8,25.3,0.00,Rain,Light Rain,230,2012-10-18 23:53:00
8:53 PM,46.9,39.9,77,29.61,10.0,SW,18.4,25.3,0.01,Rain,Light Rain,220,2012-10-19 00:53:00
9:53 PM,46.0,41.0,83,29.61,9.0,South,15.0,26.5,0.01,Rain,Light Rain,190,2012-10-19 01:53:00
10:53 PM,46.0,41.0,83,29.61,10.0,South,11.5,20.7,0.00,,Overcast,170,2012-10-19 02:53:00
11:53 PM,45.0,41.0,86,29.61,7.0,South,12.7,-,0.00,Rain,Light Rain,170,2012-10-19 03:53:00